Showing default

SECOR 9 (EGRS 9), 2861

Orbit data source: Space-Track

SECOR 9 (EGRS 9), 2861 is an American payload satellite in LEO that was launched on Thu, 29 Jun 1967 UTC via a THOR BURNER 2 launch vehicle from the Air Force Western Test Range (AFWTR). Payload-class satellites include a variety of spacecraft equipped with specific instruments for various scientific and technological missions. These include communications satellites like Starlink; space stations such as the ISS; scientific satellites like the Hubble; Earth observation satellites from companies like Planet Labs, Umbra, and HawkEye 360; GPS; miniature CubeSats for education and research; and military/defense satellites.

Loading next visibility...
Identifier
2861, 1967-065A
Orbit
LEO
Country
Flag of USUS
Related business
Manufacturer
ITT
Mission
Spacecraft
Bus & Motor
SECOR, Unknown motor
Mass
18 kg wet, 18 kg dry
Launch date (UTC)
1967-06-29 (59 years ago)
Launch vehicle
THOR BURNER 2
Launch site
Air Force Western Test Range (AFWTR)
Object type
Payload
Rocket body
Debris
Shape & HBR
Unknown
Radar Cross Section
Medium (>0.1 m² and <1 m²)

Expand to show TLE details & history
Last TLE update: 17 hours ago

TLE from 17 hours ago
0 SECOR 9 (EGRS 9)
1 02861U 67065A   26177.74888982 -.00000016  00000-0 -11112-1 0  9994
2 02861  89.9802 314.0714 0072605  94.1245 266.7894  8.36661198801852
Epoch: 2026-06-26T17:58Z
TLE epoch observation values (Epoch: 2026-06-26T17:58:24.080Z)
Latitude
0.00003°
Longitude
129.59813°
Altitude
3,878.203 km
Speed
6.233 km/s
True Right ascension
20h 56m 17s
True Declination
0° 00' 00"
Sunlit
Object was in daylight at epoch
Visualization orbit readout
Latitude
Unknown
Longitude
Unknown
Altitude
Unknown
Speed
Unknown
Apparent Right ascension
Unknown
Apparent Declination
Unknown
Sunlit
N/A
Visualization observer readout
Local Sidereal Time
21:51:13
Azimuth
Unknown
Elevation
Unknown
Doppler factor
Unknown
Orbital elements
Apogee altitude
3,943.608 km
Perigee altitude
3,794.806 km
Semi-major axis
10,247.344 km
Eccentricity
0.00726
Inclination
89.9802°
RAAN
314.0714°
Arg. of periapsis
94.1245°
True anomaly
265.95916°
Mean anomaly
266.7894°
Eccentric anomaly
266.37424°
Mean motion
2.09231 °/min
Orbital period
172.06 mins
BSTAR
-0.011112
Loading maneuver chart data...
Computing Atmospheric mass density...
Loading historical data...
Loading historical data...
Loading historical data...
Loading historical data...
Loading historical data...
Loading historical data...
Loading historical data...
Other satellites on launch #65 in the year 1967 (1967-06-29 UTC)

Documentation

Showing up to 5 results
|